Weather History for KEIK - March, 2012

Change the Weather History Date:

Saturday, March 17, 2012

  Actual Average (KBJC) Record (KBJC)
Temperature  
Mean Temperature 54 °F -  
Max Temperature 77 °F 51 °F 73 °F (2007)
Min Temperature 32 °F 31 °F 10 °F (1988)
Degree Days  
Heating Degree Days 10    
Growing Degree Days 4 (Base 50)    
Moisture  
Dew Point 15 °F    
Average Humidity 31    
Maximum Humidity 64    
Minimum Humidity 5    
Precipitation  
Precipitation 0.00 in - - ()
Sea Level Pressure  
Sea Level Pressure 29.70 in    
Wind  
Wind Speed 5 mph (South)    
Max Wind Speed 20 mph    
Max Gust Speed 28 mph    
Visibility 10 miles    
Events      
Averages and records for this station are not official NWS values.
T = Trace of Precipitation, MM = Missing Value Source: NWS Daily Summary

Daily Weather History Graph

Daily Weather History Graph

Search for Another Location

Airport or City:

Trip Planner

Search our weather history database for the weather conditions in past years. The results will help you decide how hot, cold, wet, or windy it might be!

Date:

Astronomy

Mar. 17, 2012 Rise Set
Actual Time 7:07 AM MDT 7:09 PM MDT
Civil Twilight 6:40 AM MDT 7:36 PM MDT
Nautical Twilight 6:09 AM MDT 8:08 PM MDT
Astronomical Twilight 5:37 AM MDT 8:40 PM MDT
Moon 4:10 AM MDT (3/17) 2:36 PM MDT (3/17)
Length of Visible Light 12h 56m
Length of Day
12h 02m
Waning Crescent, 22% of the Moon is Illuminated
Mar 17
Waning Crescent
Mar 22
New
Mar 30
First Quarter
Apr 6
Full
Apr 13
Last Quarter

Hourly Weather History & Observations

Time (MDT) Temp. Windchill Dew Point Humidity Pressure Visibility Wind Dir Wind Speed Gust Speed Precip Events Conditions
12:16 AM 41.0 °F 38.0 °F 19.4 °F 42% 29.79 in 10.0 mi SW 4.6 mph - N/A   Clear
12:36 AM 37.4 °F 34.9 °F 21.2 °F 52% 29.79 in 10.0 mi West 3.5 mph - N/A   Clear
12:56 AM 41.0 °F 39.0 °F 19.4 °F 42% 29.79 in 10.0 mi South 3.5 mph - N/A   Clear
1:36 AM 41.0 °F 37.1 °F 19.4 °F 42% 29.78 in 10.0 mi SSW 5.8 mph - N/A   Clear
1:56 AM 37.4 °F 32.8 °F 21.2 °F 52% 29.77 in 10.0 mi SSW 5.8 mph - N/A   Clear
2:16 AM 37.4 °F 32.1 °F 19.4 °F 48% 29.77 in 10.0 mi South 6.9 mph - N/A   Clear
2:36 AM 41.0 °F 35.8 °F 19.4 °F 42% 29.76 in 10.0 mi SW 8.1 mph - N/A   Clear
2:56 AM 41.0 °F 35.8 °F 17.6 °F 39% 29.76 in 10.0 mi SSW 8.1 mph - N/A   Clear
3:16 AM 42.8 °F 37.5 °F 17.6 °F 36% 29.75 in 10.0 mi SSW 9.2 mph - N/A   Clear
3:36 AM 41.0 °F - 17.6 °F 39% 29.75 in 10.0 mi Calm Calm - N/A   Clear
3:56 AM 39.2 °F - 17.6 °F 42% 29.75 in 10.0 mi Calm Calm - N/A   Clear
4:16 AM 35.6 °F 31.7 °F 19.4 °F 52% 29.75 in 10.0 mi SE 4.6 mph - N/A   Clear
4:36 AM 37.4 °F 34.9 °F 19.4 °F 48% 29.75 in 10.0 mi South 3.5 mph - N/A   Clear
4:56 AM 33.8 °F - 19.4 °F 56% 29.75 in 10.0 mi Calm Calm - N/A   Clear
5:16 AM 33.8 °F 30.8 °F 19.4 °F 56% 29.75 in 10.0 mi South 3.5 mph - N/A   Clear
5:36 AM 32.0 °F - 21.2 °F 64% 29.75 in 10.0 mi Calm Calm - N/A   Clear
5:56 AM 32.0 °F - 19.4 °F 60% 29.75 in 10.0 mi Calm Calm - N/A   Clear
6:16 AM 32.0 °F - 21.2 °F 64% 29.75 in 10.0 mi Calm Calm - N/A   Clear
6:36 AM 32.0 °F - 21.2 °F 64% 29.75 in 10.0 mi Calm Calm - N/A   Clear
6:56 AM 32.0 °F - 21.2 °F 64% 29.76 in 10.0 mi Calm Calm - N/A   Clear
7:16 AM 32.0 °F - 21.2 °F 64% 29.76 in 10.0 mi Calm Calm - N/A   Clear
7:36 AM 32.0 °F - 21.2 °F 64% 29.76 in 10.0 mi Calm Calm - N/A   Clear
7:56 AM 35.6 °F 31.7 °F 21.2 °F 56% 29.77 in 10.0 mi SW 4.6 mph - N/A   Clear
8:16 AM 39.2 °F - 23.0 °F 52% 29.77 in 10.0 mi Calm Calm - N/A   Clear
8:36 AM 42.8 °F - 23.0 °F 46% 29.77 in 10.0 mi Calm Calm - N/A   Clear
8:56 AM 48.2 °F - 21.2 °F 34% 29.77 in 10.0 mi Calm Calm - N/A   Clear
9:16 AM 51.8 °F - 21.2 °F 30% 29.76 in 10.0 mi Calm Calm - N/A   Clear
9:36 AM 53.6 °F - 19.4 °F 26% 29.76 in 10.0 mi Calm Calm - N/A   Clear
9:56 AM 55.4 °F - 19.4 °F 25% 29.76 in 10.0 mi Calm Calm - N/A   Clear
10:36 AM 60.8 °F - 19.4 °F 20% 29.74 in 10.0 mi Calm Calm - N/A   Clear
10:56 AM 62.6 °F - 19.4 °F 19% 29.74 in 10.0 mi Calm Calm - N/A   Clear
11:36 AM 66.2 °F - 17.6 °F 15% 29.71 in 10.0 mi Calm Calm - N/A   Clear
11:56 AM 68.0 °F - 14.0 °F 12% 29.70 in 10.0 mi Calm Calm - N/A   Clear
12:16 PM 68.0 °F - 14.0 °F 12% 29.68 in 10.0 mi East 3.5 mph - N/A   Clear
12:36 PM 69.8 °F - 14.0 °F 12% 29.67 in 10.0 mi East 5.8 mph - N/A   Clear
12:56 PM 71.6 °F - 12.2 °F 10% 29.66 in 10.0 mi East 8.1 mph - N/A   Clear
1:16 PM 71.6 °F - 12.2 °F 10% 29.65 in 10.0 mi SE 12.7 mph - N/A   Clear
1:36 PM 71.6 °F - 14.0 °F 11% 29.64 in 10.0 mi ESE 10.4 mph 16.1 mph N/A   Clear
1:56 PM 71.6 °F - 12.2 °F 10% 29.63 in 10.0 mi SSE 5.8 mph - N/A   Clear
2:16 PM 71.6 °F - 12.2 °F 10% 29.61 in 10.0 mi SSE 9.2 mph - N/A   Clear
2:36 PM 71.6 °F - 10.4 °F 9% 29.60 in 10.0 mi SSE 6.9 mph 16.1 mph N/A   Clear
2:56 PM 71.6 °F - 10.4 °F 9% 29.59 in 10.0 mi SSE 5.8 mph - N/A   Clear
3:16 PM 71.6 °F - 10.4 °F 9% 29.57 in 10.0 mi SE 8.1 mph - N/A   Clear
3:36 PM 73.4 °F - 8.6 °F 8% 29.57 in 10.0 mi SSE 13.8 mph 18.4 mph N/A   Clear
3:56 PM 73.4 °F - 8.6 °F 8% 29.56 in 10.0 mi SE 13.8 mph 21.9 mph N/A   Clear
4:16 PM 77.0 °F - 8.6 °F 7% 29.56 in 10.0 mi South 9.2 mph - N/A   Clear
4:36 PM 75.2 °F - 3.2 °F 6% 29.55 in 10.0 mi SSE 18.4 mph 23.0 mph N/A   Clear
4:56 PM 73.4 °F - -0.4 °F 5% 29.54 in 10.0 mi South 16.1 mph 23.0 mph N/A   Clear
5:16 PM 73.4 °F - -2.2 °F 5% 29.53 in 10.0 mi SSE 15.0 mph 20.7 mph N/A   Clear
5:36 PM 73.4 °F - -0.4 °F 5% 29.53 in 10.0 mi South 16.1 mph 24.2 mph N/A   Clear
5:56 PM 73.4 °F - -0.4 °F 5% 29.53 in 10.0 mi South 19.6 mph 27.6 mph N/A   Clear
6:16 PM 71.6 °F - 1.4 °F 6% 29.53 in 10.0 mi SSW 15.0 mph 24.2 mph N/A   Clear
6:36 PM 69.8 °F - 3.2 °F 7% 29.54 in 10.0 mi South 9.2 mph - N/A   Clear
6:56 PM 66.2 °F - 5.0 °F 9% 29.55 in 10.0 mi South 5.8 mph - N/A   Clear
7:16 PM 66.2 °F - 5.0 °F 9% 29.55 in 10.0 mi Calm Calm - N/A   Clear
7:36 PM 62.6 °F - 3.2 °F 9% 29.54 in 10.0 mi SSW 9.2 mph - N/A   Clear
7:56 PM 62.6 °F - 5.0 °F 10% 29.56 in 10.0 mi SSW 11.5 mph - N/A   Clear
8:16 PM 60.8 °F - 6.8 °F 12% 29.57 in 10.0 mi South 8.1 mph - N/A   Clear
8:36 PM 59.0 °F - 5.0 °F 12% 29.57 in 10.0 mi South 9.2 mph - N/A   Clear
8:56 PM 60.8 °F - 5.0 °F 11% 29.57 in 10.0 mi South 6.9 mph - N/A   Clear
9:16 PM 59.0 °F - 5.0 °F 12% 29.58 in 10.0 mi South 11.5 mph - N/A   Clear
9:36 PM 53.6 °F - 6.8 °F 15% 29.58 in 10.0 mi SSW 6.9 mph - N/A   Clear
9:56 PM 53.6 °F - 6.8 °F 15% 29.58 in 10.0 mi SSW 6.9 mph - N/A   Clear
10:16 PM 51.8 °F - 8.6 °F 18% 29.58 in 10.0 mi SSW 12.7 mph - N/A   Clear
10:36 PM 51.8 °F - 12.2 °F 21% 29.58 in 10.0 mi SSW 8.1 mph - N/A   Clear
11:16 PM 53.6 °F - 10.4 °F 18% 29.58 in 10.0 mi SSW 4.6 mph - N/A   Clear
11:36 PM 53.6 °F - 10.4 °F 18% 29.58 in 10.0 mi Calm Calm - N/A   Clear
11:56 PM 50.0 °F - 12.2 °F 22% 29.58 in 10.0 mi Calm Calm - N/A   Clear